Weather in Dovsk

Belarus     53°09′25″N   30°27′39″E
temp.,
°C
wind,
m/s
gust,
m/s
humid.,
%
clouds,
%
prec.,
mm/h
press.,
hPa
HPBL,
m
24 october, sun
sun2400:00+5wsw6127841 0.0 1017628
03:00+3w511919 0.0 1018408
06:00+4nw6979100 0.0 10191032
09:00+3nw687682 0.1 1022729
12:00+4nw6871100 0.0 1025927
15:00+5nw6857100 0.1 10261449
18:00+4nnw4862100 0.0 1028633
21:00+2wnw36685 0.0 1029132
25 october, mon
mon2500:000nw347419 0.0 103178
03:00−1nnw22795 0.0 103231
06:00−1wnw22805 0.0 103212
09:000wsw12765 0.0 103373
12:00+5sw34615 0.0 1033550
15:00+7sw45535 0.0 1031794
18:00+3ssw466914 0.0 103183
21:00+1ssw49745 0.0 1030157
26 october, tue
tue2600:00+1ssw41074100 0.0 1029192
03:000ssw4117748 0.0 1029198
06:000ssw41171100 0.0 1027227
09:00+1ssw51364100 0.0 1027304
12:00+7ssw7124751 0.0 1025522
15:00+10ssw611445 0.0 1023743
18:00+6ssw412555 0.0 1022240
21:00+4ssw413605 0.0 1022244
27 october, wed
wed2700:00+3ssw410670 0.0 1022185
03:00+2ssw49720 0.0 1021157
06:00+1ssw497841 0.0 1020143
09:00+2ssw4976100 0.0 1020218
12:00+6sw5860100 0.0 1020358
15:00+8wsw4864100 0.0 1020537
18:00+5wsw379027 0.0 1021153
21:00+4w3794100 0.0 1022144
28 october, thu
thu2800:00+4w3894100 0.0 1023163
03:00+5sw3793100 0.0 1023149
06:00+4sw4109475 0.0 1022200
09:00+6sw61383100 0.0 1022384
12:00+7sw71584100 0.6 1021490
15:00+9wsw71481100 1.3 1019637
18:00+9wsw61384100 0.1 1019566
21:00+10w51191100 1.2 1020473